KUIPER-00081

导读 | 豆包AI

KUIPER-00081是美国亚马逊柯伊伯(Kuiper)卫星星座的一员,该星座计划由数千颗低轨卫星组成,旨在为全球提供高速互联网覆盖服务。它于2025年8月11日由美国发射升空,入轨后将同星座其他卫星协同,补充完善星座网络布局,推进全球宽带卫星互联网服务的部署落地,进一步增强星座的信号覆盖与服务能力。

基本信息
目录编号:
65132
目录名称:
KUIPER-00081
国际标识:
2025-171A
轨道中心:
EARTH
卫星名称:
KUIPER-00081
卫星全名:
KUIPER-00081
卫星状态:
在轨 (已飞行215 天)
发射日期:
2025-08-11 UTC
国别 :
美国 (US)
星等 :
--
轨道信息
数据来源 国际轨道数据
星历时间: 2026-03-14T04:11:23+0800
9小时前
查看轨道信息
半长轴: 7007.751km
偏心率: 0.0000781
轨道倾角: 51.899°
近地点辐角 66.516°
升交点赤经 129.715°
平近点角 293.589°
近地点: 629.066km
远地点: 630.162km
周期: 97.303分钟
每日圈数: 14.799082
详细信息
使用方式:
暂无
2D轨道图
3D轨道图
轨道高度分析图
轨道倾角分析图
轨道综合分析图
查看轨道综合分析图